This is the latest recevied weather packets stored in our database for station/object TG9SRP-22. If no packets are shown the sender has not sent any weather packets the latest 10 day(s).
| Time | Temp. | Humidity | Pressure | Rain* | Wind** | Luminosity | Snow |
|---|---|---|---|---|---|---|---|
| 1777668262 | 21.67° C | 10% | - | 0 mm | - | - | - |
| 1777667661 | 21.67° C | 10% | - | 0 mm | - | - | - |
| 1777667060 | 21.67° C | 10% | - | 0 mm | - | - | - |
| 1777666460 | 22.22° C | 79% | 1010 hPa | 0 mm | - | - | - |
| 1777665859 | 22.78° C | 61% | 1010 hPa | 0 mm | - | - | - |
| 1777665258 | 23.89° C | 57% | 1010 hPa | 0 mm | - | - | - |
| 1777664658 | 22.78° C | 57% | 1010 hPa | 0 mm | - | - | - |
| 1777664057 | 22.78° C | 57% | 1010 hPa | 0 mm | - | - | - |
| 1777663457 | 23.33° C | 58% | 1011 hPa | 0 mm | - | - | - |
| 1777662856 | 23.89° C | 57% | 1011 hPa | 0 mm | - | - | - |
| 1777662255 | 22.78° C | 61% | 1011 hPa | 0 mm | - | - | - |
| 1777661655 | 23.89° C | 57% | 1011 hPa | 0 mm | - | - | - |
| 1777661054 | 22.78° C | 57% | 1011 hPa | 0 mm | - | - | - |
| 1777660453 | 23.33° C | 58% | 1011 hPa | 0 mm | - | - | - |
| 1777659853 | 23.89° C | 57% | 1012 hPa | 0 mm | - | - | - |
| 1777659252 | 22.78° C | 58% | 1012 hPa | 0 mm | - | - | - |
| 1777658652 | 23.33° C | 58% | 1012 hPa | 0 mm | - | - | - |
| 1777658051 | 22.78° C | 55% | 1012 hPa | 0 mm | - | - | - |
| 1777657450 | 23.33° C | 50% | 1012 hPa | 0 mm | - | - | - |
| 1777656850 | 22.78° C | 50% | 1012 hPa | 0 mm | - | - | - |
| 1777656249 | 23.89° C | 50% | 1012 hPa | 0 mm | - | - | - |
| 1777655648 | 23.89° C | 50% | 1012 hPa | 0 mm | - | - | - |
| 1777655048 | 21.67° C | 57% | 1012 hPa | 0 mm | - | - | - |
| 1777654447 | 22.22° C | 57% | 1012 hPa | 0 mm | - | - | - |
| 1777653846 | 22.22° C | 57% | 1012 hPa | 0 mm | - | - | - |
* Rain latest hour (hover to see other rain measurements)
** Current wind speed in m/s (hover to see current wind gust speed)